Time,TemperatureF,DewpointF,PressureIn,WindDirection,WindDirectionDegrees,WindSpeedMPH,WindSpeedGustMPH,Humidity,HourlyPrecipIn,Conditions,Clouds,dailyrainin,SolarRadiationWatts/m^2,SoftwareType,DateUTC
2013-03-15 00:02:00,47.0,46.0,-100.00,South,189,2.0,8.0,95,0.00,,,0.94,0.000000,,2013-03-15 07:02:00,
2013-03-15 00:12:00,47.0,46.0,-100.00,South,189,2.0,8.0,95,0.00,,,0.94,0.000000,,2013-03-15 07:12:00,
2013-03-15 00:22:00,47.0,46.0,-100.00,South,189,2.0,8.0,95,0.00,,,0.94,0.000000,,2013-03-15 07:22:00,
2013-03-15 00:32:00,47.0,46.0,-100.00,South,189,2.0,8.0,95,0.00,,,0.94,0.000000,,2013-03-15 07:32:00,
2013-03-15 00:52:00,47.0,46.0,-100.00,South,183,3.0,9.0,95,0.00,,,0.94,0.000000,,2013-03-15 07:52:00,
2013-03-15 01:02:00,47.0,46.0,-100.00,South,183,3.0,9.0,95,0.00,,,0.94,0.000000,,2013-03-15 08:02:00,
2013-03-15 01:12:00,47.0,46.0,-100.00,South,183,3.0,9.0,95,0.00,,,0.94,0.000000,,2013-03-15 08:12:00,
2013-03-15 01:22:00,47.0,46.0,-100.00,South,183,3.0,9.0,95,0.00,,,0.94,0.000000,,2013-03-15 08:22:00,
2013-03-15 01:31:00,47.0,46.0,-100.00,South,183,3.0,9.0,95,0.00,,,0.94,0.000000,,2013-03-15 08:31:00,
2013-03-15 01:33:00,47.0,46.0,-100.00,SSW,195,1.0,5.0,96,0.01,,,0.95,0.000000,,2013-03-15 08:33:00,
2013-03-15 01:52:00,47.0,46.0,-100.00,SSW,195,1.0,5.0,96,0.01,,,0.95,0.000000,,2013-03-15 08:52:00,
2013-03-15 02:02:00,47.0,46.0,-100.00,SSW,195,1.0,5.0,96,0.01,,,0.95,0.000000,,2013-03-15 09:02:00,
2013-03-15 02:12:00,47.0,46.0,-100.00,SSW,195,1.0,5.0,96,0.01,,,0.95,0.000000,,2013-03-15 09:12:00,
2013-03-15 02:21:00,47.0,46.0,-100.00,SSW,195,1.0,5.0,96,0.01,,,0.95,0.000000,,2013-03-15 09:21:00,
2013-03-15 02:53:00,47.0,46.0,-100.00,SW,222,1.0,5.0,97,0.00,,,0.95,0.000000,,2013-03-15 09:53:00,
2013-03-15 03:02:00,47.0,46.0,-100.00,SW,222,1.0,5.0,97,0.00,,,0.95,0.000000,,2013-03-15 10:02:00,
2013-03-15 03:12:00,47.0,46.0,-100.00,SW,222,1.0,5.0,97,0.00,,,0.95,0.000000,,2013-03-15 10:12:00,
2013-03-15 03:23:00,47.0,46.0,-100.00,SW,222,1.0,5.0,97,0.00,,,0.95,0.000000,,2013-03-15 10:23:00,
2013-03-15 03:32:00,47.0,46.0,-100.00,SW,222,1.0,5.0,97,0.00,,,0.95,0.000000,,2013-03-15 10:32:00,
2013-03-15 03:52:00,47.0,46.0,-100.00,South,190,2.0,8.0,97,0.00,,,0.95,0.000000,,2013-03-15 10:52:00,
2013-03-15 04:02:00,47.0,46.0,-100.00,South,190,2.0,8.0,97,0.00,,,0.95,0.000000,,2013-03-15 11:02:00,
2013-03-15 04:12:00,47.0,46.0,-100.00,South,190,2.0,8.0,97,0.00,,,0.95,0.000000,,2013-03-15 11:12:00,
2013-03-15 04:22:00,47.0,46.0,-100.00,South,190,2.0,8.0,97,0.00,,,0.95,0.000000,,2013-03-15 11:22:00,
2013-03-15 04:32:00,47.0,46.0,-100.00,South,190,2.0,8.0,97,0.00,,,0.95,0.000000,,2013-03-15 11:32:00,
2013-03-15 04:52:00,47.0,46.0,-100.00,SSW,205,0.0,4.0,97,0.00,,,0.95,0.000000,,2013-03-15 11:52:00,
2013-03-15 05:02:00,47.0,46.0,-100.00,SSW,205,0.0,4.0,97,0.00,,,0.95,0.000000,,2013-03-15 12:02:00,
2013-03-15 05:12:00,47.0,46.0,-100.00,SSW,205,0.0,4.0,97,0.00,,,0.95,0.000000,,2013-03-15 12:12:00,
2013-03-15 05:22:00,47.0,46.0,-100.00,SSW,205,0.0,4.0,97,0.00,,,0.95,0.000000,,2013-03-15 12:22:00,
2013-03-15 05:32:00,47.0,46.0,-100.00,SSW,205,0.0,4.0,97,0.00,,,0.95,0.000000,,2013-03-15 12:32:00,
2013-03-15 05:52:00,47.0,46.0,-100.00,WSW,256,1.0,4.0,97,0.00,,,0.95,0.000000,,2013-03-15 12:52:00,
2013-03-15 06:02:00,47.0,46.0,-100.00,WSW,256,1.0,4.0,97,0.00,,,0.95,0.000000,,2013-03-15 13:02:00,
2013-03-15 06:12:00,47.0,46.0,-100.00,WSW,256,1.0,4.0,97,0.00,,,0.95,0.000000,,2013-03-15 13:12:00,
2013-03-15 06:22:00,47.0,46.0,-100.00,WSW,256,1.0,4.0,97,0.00,,,0.95,0.000000,,2013-03-15 13:22:00,
2013-03-15 06:32:00,47.0,46.0,-100.00,WSW,256,1.0,4.0,97,0.00,,,0.95,0.000000,,2013-03-15 13:32:00,
2013-03-15 06:52:00,47.0,46.0,-100.00,SSW,208,1.0,5.0,96,0.00,,,0.95,0.000000,,2013-03-15 13:52:00,
2013-03-15 07:02:00,47.0,46.0,-100.00,SSW,208,1.0,5.0,96,0.00,,,0.95,0.000000,,2013-03-15 14:02:00,
2013-03-15 07:12:00,47.0,46.0,-100.00,SSW,208,1.0,5.0,96,0.00,,,0.95,0.000000,,2013-03-15 14:12:00,
2013-03-15 07:22:00,47.0,46.0,-100.00,SSW,208,1.0,5.0,96,0.00,,,0.95,0.000000,,2013-03-15 14:22:00,
2013-03-15 07:32:00,47.0,46.0,-100.00,SSW,208,1.0,5.0,96,0.00,,,0.95,0.000000,,2013-03-15 14:32:00,
2013-03-15 07:53:00,47.0,45.0,-100.00,SSE,156,2.0,7.0,94,0.00,,,0.95,1.000000,,2013-03-15 14:53:00,
2013-03-15 08:02:00,47.0,45.0,-100.00,SSE,156,2.0,7.0,94,0.00,,,0.95,1.000000,,2013-03-15 15:02:00,
2013-03-15 08:12:00,47.0,45.0,-100.00,SSE,156,2.0,7.0,94,0.00,,,0.95,1.000000,,2013-03-15 15:12:00,
2013-03-15 08:22:00,47.0,45.0,-100.00,SSE,156,2.0,7.0,94,0.00,,,0.95,1.000000,,2013-03-15 15:22:00,
2013-03-15 08:32:00,47.0,45.0,-100.00,SSE,156,2.0,7.0,94,0.00,,,0.95,1.000000,,2013-03-15 15:32:00,
2013-03-15 08:53:00,47.0,45.0,-100.00,SSE,166,0.0,9.0,92,0.00,,,0.95,23.000000,,2013-03-15 15:53:00,
2013-03-15 09:02:00,47.0,45.0,-100.00,SSE,166,0.0,9.0,92,0.00,,,0.95,23.000000,,2013-03-15 16:02:00,
2013-03-15 09:12:00,47.0,45.0,-100.00,SSE,166,0.0,9.0,92,0.00,,,0.95,23.000000,,2013-03-15 16:12:00,
2013-03-15 09:22:00,47.0,45.0,-100.00,SSE,166,0.0,9.0,92,0.00,,,0.95,23.000000,,2013-03-15 16:22:00,
2013-03-15 09:32:00,47.0,45.0,-100.00,SSE,166,0.0,9.0,92,0.00,,,0.95,23.000000,,2013-03-15 16:32:00,
2013-03-15 09:52:00,49.0,46.0,-100.00,South,186,2.0,5.0,89,0.00,,,0.95,86.000000,,2013-03-15 16:52:00,
2013-03-15 10:02:00,49.0,46.0,-100.00,South,186,2.0,5.0,89,0.00,,,0.95,86.000000,,2013-03-15 17:02:00,
2013-03-15 10:12:00,49.0,46.0,-100.00,South,186,2.0,5.0,89,0.00,,,0.95,86.000000,,2013-03-15 17:12:00,
2013-03-15 10:22:00,49.0,46.0,-100.00,South,186,2.0,5.0,89,0.00,,,0.95,86.000000,,2013-03-15 17:22:00,
2013-03-15 10:32:00,49.0,46.0,-100.00,South,186,2.0,5.0,89,0.00,,,0.95,86.000000,,2013-03-15 17:32:00,
2013-03-15 10:53:00,50.0,46.0,-100.00,South,171,3.0,7.0,87,0.00,,,0.93,178.000000,,2013-03-15 17:53:00,
2013-03-15 11:02:00,50.0,46.0,-100.00,South,171,3.0,7.0,87,0.00,,,0.93,178.000000,,2013-03-15 18:02:00,
2013-03-15 11:12:00,50.0,46.0,-100.00,South,171,3.0,7.0,87,0.00,,,0.93,178.000000,,2013-03-15 18:12:00,
2013-03-15 11:22:00,50.0,46.0,-100.00,South,171,3.0,7.0,87,0.00,,,0.93,178.000000,,2013-03-15 18:22:00,
2013-03-15 11:32:00,50.0,46.0,-100.00,South,171,3.0,7.0,87,0.00,,,0.93,178.000000,,2013-03-15 18:32:00,
2013-03-15 11:52:00,52.0,47.0,-100.00,SSE,161,4.0,10.0,84,0.00,,,0.90,235.000000,,2013-03-15 18:52:00,
2013-03-15 12:02:00,52.0,47.0,-100.00,SSE,161,4.0,10.0,84,0.00,,,0.90,235.000000,,2013-03-15 19:02:00,
2013-03-15 12:12:00,52.0,47.0,-100.00,SSE,161,4.0,10.0,84,0.00,,,0.90,235.000000,,2013-03-15 19:12:00,
2013-03-15 12:22:00,52.0,47.0,-100.00,SSE,161,4.0,10.0,84,0.00,,,0.90,235.000000,,2013-03-15 19:22:00,
2013-03-15 12:31:00,52.0,47.0,-100.00,SSE,161,4.0,10.0,84,0.00,,,0.90,235.000000,,2013-03-15 19:31:00,
2013-03-15 12:52:00,52.0,47.0,-100.00,South,179,4.0,12.0,84,0.00,,,-99.99,299.000000,,2013-03-15 19:52:00,
2013-03-15 13:02:00,52.0,47.0,-100.00,South,179,4.0,12.0,84,0.00,,,-99.99,299.000000,,2013-03-15 20:02:00,
2013-03-15 13:12:00,52.0,47.0,-100.00,South,179,4.0,12.0,84,0.00,,,-99.99,299.000000,,2013-03-15 20:12:00,
2013-03-15 13:22:00,52.0,47.0,-100.00,South,179,4.0,12.0,84,0.00,,,-99.99,299.000000,,2013-03-15 20:22:00,
2013-03-15 13:31:00,52.0,47.0,-100.00,South,179,4.0,12.0,84,0.00,,,-99.99,299.000000,,2013-03-15 20:31:00,
2013-03-15 13:52:00,50.0,48.0,-100.00,SW,226,2.0,9.0,93,0.00,,,0.82,130.000000,,2013-03-15 20:52:00,
2013-03-15 14:02:00,50.0,48.0,-100.00,SW,226,2.0,9.0,93,0.00,,,0.82,130.000000,,2013-03-15 21:02:00,
2013-03-15 14:12:00,50.0,48.0,-100.00,SW,226,2.0,9.0,93,0.00,,,0.82,130.000000,,2013-03-15 21:12:00,
2013-03-15 14:22:00,50.0,48.0,-100.00,SW,226,2.0,9.0,93,0.00,,,0.82,130.000000,,2013-03-15 21:22:00,
2013-03-15 14:32:00,50.0,48.0,-100.00,SW,226,2.0,9.0,93,0.00,,,0.82,130.000000,,2013-03-15 21:32:00,
2013-03-15 14:52:00,50.0,47.0,-100.00,SSW,196,3.0,11.0,89,0.00,,,0.73,136.000000,,2013-03-15 21:52:00,
2013-03-15 15:03:00,50.0,47.0,-100.00,SSW,196,3.0,11.0,89,0.00,,,0.73,136.000000,,2013-03-15 22:03:00,
2013-03-15 15:13:00,50.0,47.0,-100.00,SSW,196,3.0,11.0,89,0.00,,,0.73,136.000000,,2013-03-15 22:13:00,
2013-03-15 15:22:00,50.0,47.0,-100.00,SSW,196,3.0,11.0,89,0.00,,,0.73,136.000000,,2013-03-15 22:22:00,
2013-03-15 15:32:00,50.0,47.0,-100.00,SSW,196,3.0,11.0,89,0.00,,,0.73,136.000000,,2013-03-15 22:32:00,
2013-03-15 15:52:00,48.0,47.0,-100.00,SSW,196,3.0,11.0,95,0.02,,,0.64,69.000000,,2013-03-15 22:52:00,
2013-03-15 16:02:00,48.0,47.0,-100.00,SSW,196,3.0,11.0,95,0.02,,,0.64,69.000000,,2013-03-15 23:02:00,
2013-03-15 16:12:00,48.0,47.0,-100.00,SSW,196,3.0,11.0,95,0.02,,,0.64,69.000000,,2013-03-15 23:12:00,
2013-03-15 16:22:00,48.0,47.0,-100.00,SSW,196,3.0,11.0,95,0.02,,,0.64,69.000000,,2013-03-15 23:22:00,
2013-03-15 16:32:00,48.0,47.0,-100.00,SSW,196,3.0,11.0,95,0.02,,,0.64,69.000000,,2013-03-15 23:32:00,
2013-03-15 16:53:00,48.0,46.0,-100.00,South,191,3.0,10.0,93,0.04,,,0.55,111.000000,,2013-03-15 23:53:00,
2013-03-15 17:02:00,48.0,46.0,-100.00,South,191,3.0,10.0,93,0.04,,,0.55,111.000000,,2013-03-16 00:02:00,
2013-03-15 17:12:00,48.0,46.0,-100.00,South,191,3.0,10.0,93,0.04,,,0.55,111.000000,,2013-03-16 00:12:00,
2013-03-15 17:22:00,48.0,46.0,-100.00,South,191,3.0,10.0,93,0.04,,,0.55,111.000000,,2013-03-16 00:22:00,
2013-03-15 17:32:00,48.0,46.0,-100.00,South,191,3.0,10.0,93,0.04,,,0.55,111.000000,,2013-03-16 00:32:00,
2013-03-15 17:52:00,48.0,46.0,-100.00,SSW,194,1.0,9.0,94,0.00,,,0.40,88.000000,,2013-03-16 00:52:00,
2013-03-15 18:02:00,48.0,46.0,-100.00,SSW,194,1.0,9.0,94,0.00,,,0.40,88.000000,,2013-03-16 01:02:00,
2013-03-15 18:12:00,48.0,46.0,-100.00,SSW,194,1.0,9.0,94,0.00,,,0.40,88.000000,,2013-03-16 01:12:00,
2013-03-15 18:21:00,48.0,46.0,-100.00,SSW,194,1.0,9.0,94,0.00,,,0.40,88.000000,,2013-03-16 01:21:00,
2013-03-15 18:32:00,48.0,46.0,-100.00,SSW,194,1.0,9.0,94,0.00,,,0.40,88.000000,,2013-03-16 01:32:00,
2013-03-15 18:52:00,47.0,46.0,-100.00,South,182,1.0,8.0,95,0.07,,,0.32,34.000000,,2013-03-16 01:52:00,
2013-03-15 19:02:00,47.0,46.0,-100.00,South,182,1.0,8.0,95,0.07,,,0.32,34.000000,,2013-03-16 02:02:00,
2013-03-15 19:12:00,47.0,46.0,-100.00,South,182,1.0,8.0,95,0.07,,,0.32,34.000000,,2013-03-16 02:12:00,
2013-03-15 19:22:00,47.0,46.0,-100.00,South,182,1.0,8.0,95,0.07,,,0.32,34.000000,,2013-03-16 02:22:00,
2013-03-15 19:32:00,47.0,46.0,-100.00,South,182,1.0,8.0,95,0.07,,,0.32,34.000000,,2013-03-16 02:32:00,
2013-03-15 19:52:00,47.0,46.0,-100.00,South,186,2.0,6.0,96,0.03,,,0.24,10.000000,,2013-03-16 02:52:00,
2013-03-15 20:02:00,47.0,46.0,-100.00,South,186,2.0,6.0,96,0.03,,,0.24,10.000000,,2013-03-16 03:02:00,
2013-03-15 20:12:00,47.0,46.0,-100.00,South,186,2.0,6.0,96,0.03,,,0.24,10.000000,,2013-03-16 03:12:00,
2013-03-15 20:21:00,47.0,46.0,-100.00,South,186,2.0,6.0,96,0.03,,,0.24,10.000000,,2013-03-16 03:21:00,
2013-03-15 20:32:00,47.0,46.0,-100.00,South,186,2.0,6.0,96,0.03,,,0.24,10.000000,,2013-03-16 03:32:00,
2013-03-15 20:53:00,47.0,46.0,-100.00,SSE,158,1.0,5.0,97,0.00,,,0.19,0.000000,,2013-03-16 03:53:00,
2013-03-15 21:02:00,47.0,46.0,-100.00,SSE,158,1.0,5.0,97,0.00,,,0.19,0.000000,,2013-03-16 04:02:00,
2013-03-15 21:12:00,47.0,46.0,-100.00,SSE,158,1.0,5.0,97,0.00,,,0.19,0.000000,,2013-03-16 04:12:00,
2013-03-15 21:22:00,47.0,46.0,-100.00,SSE,158,1.0,5.0,97,0.00,,,0.19,0.000000,,2013-03-16 04:22:00,
2013-03-15 21:32:00,47.0,46.0,-100.00,SSE,158,1.0,5.0,97,0.00,,,0.19,0.000000,,2013-03-16 04:32:00,
2013-03-15 21:53:00,47.0,46.0,-100.00,SSW,197,0.0,3.0,97,0.03,,,0.20,0.000000,,2013-03-16 04:53:00,
2013-03-15 22:02:00,47.0,46.0,-100.00,SSW,197,0.0,3.0,97,0.03,,,0.20,0.000000,,2013-03-16 05:02:00,
2013-03-15 22:12:00,47.0,46.0,-100.00,SSW,197,0.0,3.0,97,0.03,,,0.20,0.000000,,2013-03-16 05:12:00,
2013-03-15 22:21:00,47.0,46.0,-100.00,SSW,197,0.0,3.0,97,0.03,,,0.20,0.000000,,2013-03-16 05:21:00,
2013-03-15 22:32:00,47.0,46.0,-100.00,SSW,197,0.0,3.0,97,0.03,,,0.20,0.000000,,2013-03-16 05:32:00,
2013-03-15 22:53:00,47.0,46.0,-100.00,SSW,208,1.0,5.0,97,0.01,,,0.21,0.000000,,2013-03-16 05:53:00,
2013-03-15 23:02:00,47.0,46.0,-100.00,SSW,208,1.0,5.0,97,0.01,,,0.21,0.000000,,2013-03-16 06:02:00,
2013-03-15 23:12:00,47.0,46.0,-100.00,SSW,208,1.0,5.0,97,0.01,,,0.21,0.000000,,2013-03-16 06:12:00,
2013-03-15 23:21:00,47.0,46.0,-100.00,SSW,208,1.0,5.0,97,0.01,,,0.21,0.000000,,2013-03-16 06:21:00,
2013-03-15 23:32:00,47.0,46.0,-100.00,SSW,208,1.0,5.0,97,0.01,,,0.21,0.000000,,2013-03-16 06:32:00,
2013-03-15 23:52:00,46.0,45.0,-100.00,SSW,192,2.0,5.0,98,0.00,,,0.21,0.000000,,2013-03-16 06:52:00,